Temp
17 16 16 16 15 14 13 13 14 14 14 14 14 14 14 14 14 14 14 13 13 13 14 13 13 13 13 13 13 13 11 10 10 10 10 11 10 10 10 9 9 9 9 9 9 9 9 9 10 10 10 9 9 9 8 8 7 7 7 7 6 6 6 6 6 6 5 5 5 5 5 5 5 5 4 4 4 4 4 4 3 3 3 3 3 3
16 16 15 14 13 13 13 13 13 14 14 14 14 14 14 13 14 14 14 13 12 13 14 13 13 13 13 12 13 13 12 11 10 10 11 11 11 11 10 10 9 9 9 9 9 9 9 9 9 9 9 9 9 8 8 8 7 7 7 6 6 6 6 6 5 5 5 5 5 5 5 5 5 5 4 4 4 4 4 4 3 3 3 3 3 3
16 16 14 13 12 13 13 13 14 14 14 14 14 13 13 13 14 14 13 12 12 13 13 13 13 13 13 12 12 12 13 13 11 11 11 11 11 11 11 10 10 10 10 9 9 8 9 9 9 9 9 9 8 8 8 7 7 7 6 6 6 6 5 5 5 5 5 5 5 5 5 5 5 4 4 4 4 4 4 4 3 3 3 3 3 2
15 15 13 12 12 12 13 13 14 13 13 14 13 13 13 13 14 14 13 12 12 12 13 13 12 12 12 12 13 13 12 13 13 11 11 12 12 12 12 11 10 10 10 10 9 8 8 8 8 8 8 8 8 7 7 7 7 7 6 6 6 6 6 5 5 5 5 5 5 5 5 5 4 4 4 4 4 4 4 3 3 3 3 3 2 2
15 13 11 12 12 12 13 13 13 13 13 13 13 13 14 13 13 13 13 11 12 12 12 12 12 12 13 13 15 15 13 12 13 12 11 11 12 12 12 12 11 11 10 10 9 9 8 8 7 7 7 7 7 7 7 7 7 7 6 6 6 6 6 5 5 5 5 5 4 4 4 4 4 3 3 3 3 3 3 3 3 3 3 2 2 2
14 11 11 12 12 12 13 13 13 13 13 13 12 11 12 12 12 12 11 11 13 13 12 12 13 14 15 14 15 15 14 14 14 12 12 11 11 11 12 12 11 11 10 10 10 9 8 7 7 7 7 7 7 7 7 7 7 7 6 6 6 6 6 5 5 5 4 4 4 4 3 3 3 3 4 4 4 4 3 3 3 3 3 2 2 2
12 10 11 11 11 12 12 12 12 12 12 13 12 10 10 11 12 12 11 12 13 13 13 12 12 12 13 14 14 14 14 14 14 13 13 12 11 11 11 12 12 11 10 10 10 9 8 8 7 7 7 6 6 7 7 7 6 6 6 6 6 6 5 5 5 5 4 4 4 4 3 4 4 4 4 4 4 4 4 4 3 3 2 2 2 2
11 11 11 11 11 12 12 12 12 12 13 13 11 10 11 11 12 11 11 11 12 12 11 11 12 11 12 13 14 14 14 15 15 14 13 12 11 11 12 12 12 11 11 10 10 9 8 8 7 7 6 7 7 7 6 6 6 6 6 6 6 6 5 5 5 5 4 4 4 4 4 4 4 4 4 4 4 3 3 3 3 3 2 2 2 1
11 11 11 11 11 11 12 12 11 12 13 13 10 9 10 10 10 10 10 10 10 10 11 11 11 12 12 13 14 14 15 15 16 15 14 13 12 12 12 12 12 11 11 11 10 10 9 8 7 7 7 7 7 7 6 6 6 6 6 6 6 5 5 5 5 5 5 4 4 4 4 4 4 4 4 3 3 2 2 2 2 2 2 1 1 1
10 11 11 11 12 12 12 11 10 12 12 11 9 9 10 9 9 9 9 10 10 11 12 12 11 12 13 14 14 14 15 16 16 15 14 13 12 12 12 12 11 11 11 11 11 10 9 8 8 8 7 7 7 6 6 6 6 6 6 5 5 5 5 5 5 5 5 4 4 4 4 3 3 3 2 2 2 2 2 2 2 1 1 1 1 0
10 9 9 10 11 11 11 9 9 10 10 9 9 10 11 9 8 9 9 10 10 11 12 12 11 12 13 15 16 15 16 17 17 16 14 13 13 12 12 12 11 11 11 11 11 10 9 8 9 8 7 7 7 6 6 6 6 6 6 5 5 5 5 5 5 5 4 4 4 4 3 3 3 2 2 2 2 1 1 1 1 1 1 1 0 0
9 9 10 10 10 10 10 10 9 8 8 10 10 11 12 12 10 10 10 10 11 13 13 11 11 12 12 15 17 16 16 16 17 17 18 17 15 13 12 12 11 11 11 10 10 10 9 8 8 7 7 6 6 6 6 6 6 5 5 5 5 5 5 5 4 4 4 4 3 3 3 3 2 2 2 1 1 1 1 1 1 0 0 0 -0 -0
11 10 9 10 9 10 11 11 9 8 8 10 11 11 12 13 12 12 12 11 12 12 12 11 12 12 12 14 16 15 15 15 15 17 18 17 17 16 13 12 11 11 11 11 10 10 9 8 6 5 6 5 5 5 5 5 5 5 5 5 5 4 4 4 4 4 3 3 3 2 2 2 2 1 1 1 1 1 0 0 -0 -0 -0 -0 -0 -1
14 11 9 10 11 10 11 13 13 11 9 10 11 12 13 13 13 13 13 12 13 12 11 11 12 13 13 15 16 15 16 16 15 15 15 15 16 17 15 12 11 10 10 10 10 9 9 7 5 4 5 4 4 5 5 5 5 5 4 4 4 4 4 4 3 3 3 2 2 2 2 1 1 1 1 0 0 0 -0 -0 -0 -1 -1 -1 -1 -1
16 15 12 12 12 10 10 12 13 12 10 10 11 12 13 13 13 13 13 13 13 13 11 11 12 13 15 16 16 16 17 16 15 15 14 14 14 14 13 12 11 11 10 9 9 9 8 5 3 4 4 3 4 4 4 4 4 4 3 3 3 3 3 3 2 2 2 2 1 1 1 0 0 0 0 -0 -0 -0 -1 -1 -1 -1 -1 -1 -2 -2
15 17 13 9 9 9 10 10 11 12 12 11 11 12 12 13 13 13 12 12 12 11 11 11 12 13 15 15 15 15 16 15 15 15 14 15 13 12 13 13 12 11 10 9 8 8 7 3 2 3 3 3 3 3 3 3 3 3 3 2 2 2 2 1 1 1 1 1 0 -0 -0 -0 -0 -0 -1 -1 -1 -1 -1 -1 -1 -2 -2 -2 -2 -2
15 16 11 8 9 9 9 10 10 11 13 12 11 12 12 11 12 13 11 11 11 10 11 11 12 13 14 15 15 15 16 15 14 14 15 16 13 12 14 14 12 11 9 8 7 6 5 2 1 2 2 2 2 2 2 2 2 3 2 2 1 1 1 0 0 0 0 -0 -1 -1 -1 -1 -1 -1 -1 -1 -1 -2 -2 -2 -2 -2 -3 -3 -3 -3
15 15 11 9 11 9 7 9 9 9 11 12 12 12 11 10 11 12 11 11 10 10 11 11 12 13 14 15 15 15 16 16 15 14 14 13 12 13 14 13 10 9 7 6 5 4 3 1 0 1 1 1 2 2 2 2 2 2 1 1 1 0 -0 -0 -0 -0 -1 -1 -1 -1 -1 -1 -1 -1 -2 -2 -2 -2 -2 -3 -3 -3 -3 -4 -4 -4
13 15 12 9 10 9 7 9 11 10 9 11 10 10 11 12 12 12 11 11 11 10 10 11 11 12 13 14 16 16 16 16 16 14 13 13 13 13 14 12 10 7 6 6 5 4 3 1 0 1 1 1 1 1 1 1 1 1 1 1 0 -0 -0 -1 -1 -1 -1 -1 -2 -2 -2 -2 -2 -2 -2 -3 -3 -3 -3 -3 -4 -4 -4 -5 -5 -5
13 14 14 9 8 9 9 10 12 11 8 8 9 9 10 11 11 11 11 10 11 11 11 11 11 12 13 14 16 16 16 16 16 15 14 15 14 12 13 12 10 8 7 6 5 4 3 1 0 1 1 1 1 1 1 1 0 0 0 -0 -1 -1 -1 -1 -2 -2 -2 -2 -2 -2 -2 -2 -3 -3 -3 -3 -4 -4 -4 -4 -5 -5 -6 -6 -6 -6
12 13 14 10 8 9 11 11 12 12 11 9 9 9 10 10 10 11 10 10 11 11 11 10 11 12 14 14 16 16 16 16 15 15 15 15 14 12 10 10 9 8 7 6 5 4 3 1 -0 1 1 1 1 0 0 0 -0 -0 -1 -1 -1 -2 -2 -2 -2 -2 -3 -3 -3 -3 -3 -4 -4 -4 -4 -4 -5 -5 -5 -6 -6 -6 -6 -6 -6 -6
13 12 13 12 10 11 13 11 11 12 12 11 11 10 10 10 10 10 10 10 10 10 11 11 11 13 14 15 15 15 15 15 15 14 15 15 14 13 11 9 8 8 7 7 5 4 2 0 -1 0 0 0 0 -0 -0 -0 -1 -1 -1 -2 -2 -2 -2 -3 -3 -3 -3 -4 -4 -4 -4 -4 -5 -5 -5 -5 -6 -6 -6 -7 -7 -7 -7 -7 -7 -7
12 11 11 12 12 12 13 11 9 10 11 11 11 11 10 10 10 11 11 11 10 10 10 11 11 12 15 15 15 15 16 16 14 13 14 15 14 13 12 10 8 7 8 7 5 4 2 -0 -1 -0 -0 -0 -1 -1 -1 -1 -1 -2 -2 -2 -3 -3 -3 -3 -3 -4 -4 -4 -4 -5 -5 -5 -5 -6 -6 -6 -7 -7 -7 -7 -8 -7 -8 -8 -8 -8
11 12 11 11 12 13 11 9 8 8 9 10 10 10 9 10 11 12 11 11 11 10 10 10 10 12 13 12 13 14 14 14 14 13 13 15 14 13 12 11 10 9 8 6 5 3 1 -1 -1 -1 -1 -1 -1 -1 -2 -2 -2 -2 -2 -3 -3 -3 -3 -4 -4 -4 -4 -5 -5 -5 -6 -6 -6 -6 -7 -7 -7 -8 -8 -8 -8 -8 -8 -8 -8 -8
12 12 12 11 12 13 13 11 10 9 9 9 10 10 9 10 10 10 10 9 10 11 11 10 10 13 12 11 11 13 13 14 14 13 12 12 13 13 12 12 11 9 8 6 5 3 1 0 -0 -1 -1 -1 -1 -2 -2 -2 -2 -3 -3 -3 -4 -4 -4 -4 -5 -5 -5 -5 -6 -6 -6 -6 -7 -7 -7 -8 -8 -8 -8 -8 -9 -9 -9 -9 -9 -9
11 12 12 12 12 12 13 14 14 13 10 9 10 10 9 10 9 10 10 9 9 10 10 10 10 12 13 12 12 13 12 12 12 12 12 11 12 12 11 11 11 10 9 8 5 3 2 1 0 -0 -1 -1 -1 -2 -2 -3 -3 -3 -3 -4 -4 -4 -5 -5 -5 -5 -6 -6 -6 -7 -7 -7 -7 -8 -8 -8 -8 -9 -9 -9 -9 -9 -9 -10 -10 -10
10 10 11 12 12 12 13 15 14 13 11 11 11 10 10 9 9 10 10 9 10 10 10 10 11 11 12 12 12 12 11 10 10 10 10 10 10 10 10 10 10 9 9 8 5 4 3 2 1 0 -1 -1 -1 -2 -2 -3 -3 -3 -4 -4 -4 -5 -5 -5 -5 -6 -6 -6 -7 -7 -7 -8 -8 -8 -8 -8 -8 -9 -9 -9 -10 -10 -10 -10 -10 -10
10 10 9 10 11 12 13 13 13 11 11 11 11 10 10 9 9 9 9 10 11 10 9 12 12 11 11 12 10 10 9 9 8 9 8 8 8 8 8 8 9 9 9 7 5 4 4 3 2 1 -0 -1 -1 -2 -2 -3 -3 -3 -4 -4 -5 -5 -5 -6 -6 -6 -7 -7 -7 -7 -8 -8 -8 -8 -8 -9 -9 -9 -10 -10 -10 -10 -10 -10 -11 -11
9 9 9 9 9 10 10 10 10 9 9 10 9 9 9 9 9 9 9 10 10 9 10 12 12 11 11 10 8 7 7 7 7 7 7 7 7 7 7 7 8 8 9 8 7 5 4 4 3 1 0 -1 -1 -2 -2 -3 -3 -3 -4 -4 -5 -5 -5 -6 -6 -7 -7 -7 -8 -8 -8 -8 -8 -9 -9 -9 -9 -10 -10 -10 -10 -11 -11 -11 -11 -11
8 8 9 8 8 9 9 9 9 9 8 8 8 8 8 8 8 8 8 9 9 9 9 10 10 10 9 6 5 6 6 6 6 6 6 6 6 7 7 7 7 7 7 7 7 6 5 4 3 2 -0 -1 -1 -2 -2 -3 -3 -4 -4 -4 -5 -5 -6 -6 -7 -7 -7 -8 -8 -8 -8 -8 -9 -9 -9 -10 -10 -10 -10 -10 -11 -11 -11 -11 -12 -12
7 7 8 8 8 8 9 9 9 8 7 7 7 8 8 8 8 8 8 8 8 8 9 9 8 7 6 4 4 5 5 5 5 5 5 6 6 6 6 6 6 6 6 6 6 6 5 4 3 2 -0 -1 -1 -1 -2 -2 -3 -3 -4 -5 -5 -6 -6 -6 -7 -7 -8 -8 -8 -8 -8 -9 -9 -9 -10 -10 -10 -11 -11 -11 -11 -11 -12 -12 -12 -12
7 6 7 8 7 8 9 9 8 8 8 8 7 7 7 7 7 7 6 5 5 5 6 6 5 4 3 3 3 3 3 4 4 4 4 5 5 5 4 4 4 4 4 4 5 5 5 5 4 3 1 -1 -1 -1 -1 -2 -3 -4 -4 -5 -5 -6 -6 -7 -7 -8 -8 -8 -8 -9 -9 -9 -9 -10 -10 -11 -11 -11 -11 -11 -12 -12 -12 -13 -13 -13
6 6 7 8 7 7 9 8 7 7 7 7 6 5 5 6 5 5 4 2 2 3 2 2 2 2 2 2 2 2 2 2 3 3 3 4 4 3 2 2 2 2 2 2 3 4 4 5 4 2 1 0 0 -0 -1 -1 -3 -3 -4 -5 -5 -6 -7 -7 -7 -8 -8 -8 -9 -9 -9 -9 -10 -10 -11 -11 -11 -12 -12 -12 -12 -12 -13 -13 -13 -13
5 5 6 7 6 7 8 7 6 6 6 6 5 3 4 5 4 3 2 1 1 1 1 1 1 1 1 1 1 1 1 1 2 2 3 3 2 1 1 0 0 0 1 1 2 3 3 3 3 3 3 3 3 1 0 -1 -2 -3 -4 -5 -6 -6 -7 -7 -8 -8 -8 -9 -9 -9 -10 -10 -10 -11 -11 -12 -12 -12 -12 -12 -13 -13 -13 -13 -13 -14
6 5 5 6 6 6 6 6 5 6 6 5 4 3 3 4 4 2 1 -0 -0 0 -0 -0 0 -0 -0 0 0 0 1 1 1 2 3 2 1 0 -0 -0 -0 -0 0 1 1 2 2 2 2 3 4 4 3 2 -0 -1 -2 -3 -4 -5 -6 -6 -7 -8 -8 -9 -9 -9 -10 -10 -10 -11 -11 -11 -12 -12 -12 -12 -13 -13 -13 -13 -14 -14 -14 -14
6 5 4 5 5 5 6 6 5 7 7 4 2 2 2 2 3 2 1 -0 -1 -1 -0 -1 -1 -0 -1 -0 0 0 0 1 1 2 3 2 0 0 -0 -1 -1 -0 0 1 1 1 1 1 1 2 3 3 3 1 -0 -2 -3 -4 -5 -6 -6 -7 -7 -8 -9 -9 -10 -10 -10 -10 -11 -11 -12 -12 -13 -13 -13 -13 -13 -13 -14 -14 -14 -14 -14 -14
5 5 5 5 6 5 5 5 5 7 6 2 -0 1 1 1 1 1 1 1 -1 -1 -1 -1 -1 -1 -1 -0 -0 -0 0 0 1 2 2 1 0 -0 -1 -1 -0 -0 0 0 0 -0 -0 0 0 1 2 2 2 1 -1 -2 -3 -4 -6 -6 -7 -7 -8 -9 -9 -10 -10 -10 -11 -11 -11 -11 -12 -13 -13 -13 -13 -13 -13 -14 -14 -14 -14 -14 -15 -15
4 5 5 5 5 5 4 4 5 6 4 -0 -1 -0 0 1 1 1 1 1 -0 -1 -1 -1 -2 -1 -1 -1 -1 -1 -0 -1 -1 0 1 0 -0 -1 -1 -0 -0 -0 -0 -0 -1 -1 -1 -1 -1 0 1 1 1 -0 -2 -3 -4 -5 -6 -7 -8 -8 -9 -9 -10 -10 -11 -11 -11 -11 -11 -12 -12 -13 -13 -13 -13 -14 -14 -14 -14 -14 -15 -15 -15 -15
4 4 4 4 4 4 3 3 4 4 1 -2 -2 -0 0 0 1 1 1 1 -0 -1 -1 -1 -2 -2 -1 -1 -1 -1 -2 -2 -2 -1 -0 -1 -1 -1 -1 -1 -0 -0 -0 -1 -1 -2 -2 -1 -1 -1 -1 -1 -1 -1 -3 -4 -5 -6 -7 -8 -9 -9 -10 -10 -10 -10 -11 -11 -11 -11 -12 -12 -13 -13 -13 -14 -14 -14 -14 -14 -15 -15 -15 -15 -15 -16
3 3 3 3 2 3 3 3 3 2 -1 -2 -1 -1 0 1 1 1 0 -0 -1 -2 -2 -2 -2 -2 -1 -2 -2 -2 -3 -3 -3 -2 -1 -1 -1 -1 -1 -1 -1 -1 -1 -1 -2 -2 -2 -2 -2 -2 -2 -2 -2 -2 -4 -5 -6 -7 -8 -9 -10 -10 -10 -10 -10 -11 -11 -11 -11 -12 -12 -13 -13 -13 -14 -14 -14 -14 -14 -15 -15 -15 -15 -16 -16 -16
2 2 2 2 2 2 2 2 3 2 -2 -2 -1 -1 0 1 1 -1 -2 -2 -2 -2 -2 -2 -2 -2 -2 -2 -3 -3 -3 -3 -2 -2 -2 -1 -1 -1 -1 -1 -1 -1 -2 -2 -2 -2 -2 -2 -3 -3 -3 -3 -3 -4 -5 -6 -7 -8 -9 -10 -10 -10 -10 -11 -11 -11 -11 -11 -12 -13 -13 -13 -13 -14 -14 -14 -14 -14 -15 -15 -15 -15 -16 -16 -16 -17
0 1 1 1 1 1 1 1 2 2 -1 -2 -1 -0 0 1 -1 -2 -3 -2 -2 -3 -2 -2 -2 -2 -2 -3 -3 -3 -3 -3 -2 -2 -2 -2 -3 -3 -2 -2 -2 -2 -2 -3 -3 -3 -3 -3 -3 -3 -4 -4 -4 -5 -6 -7 -8 -9 -10 -10 -11 -11 -11 -11 -11 -11 -11 -12 -13 -13 -13 -14 -14 -14 -14 -14 -15 -15 -15 -15 -16 -16 -16 -17 -17 -17
-1 -0 0 -0 -0 -0 -0 -0 0 0 -1 -1 -2 -1 -1 -1 -2 -3 -3 -3 -3 -3 -3 -3 -2 -2 -3 -3 -3 -3 -3 -3 -3 -3 -3 -3 -3 -3 -3 -3 -3 -3 -3 -3 -4 -4 -4 -4 -4 -4 -4 -5 -6 -7 -7 -8 -9 -9 -10 -11 -11 -11 -11 -11 -11 -12 -12 -13 -13 -14 -14 -14 -14 -14 -15 -15 -15 -15 -15 -16 -16 -17 -17 -17 -18 -18
-1 -2 -2 -1 -1 -2 -3 -1 -1 -1 -1 -1 -2 -2 -2 -2 -2 -3 -3 -3 -3 -3 -3 -3 -3 -2 -3 -3 -3 -3 -3 -4 -4 -4 -4 -4 -4 -4 -4 -4 -4 -4 -4 -4 -4 -5 -5 -5 -5 -5 -5 -6 -7 -8 -8 -9 -9 -10 -11 -11 -11 -12 -12 -12 -12 -13 -13 -13 -14 -14 -14 -14 -15 -15 -15 -15 -15 -16 -16 -16 -17 -17 -18 -18 -18 -19
-2 -2 -2 -1 -1 -2 -3 -2 -1 -0 -0 -1 -1 -2 -2 -2 -2 -2 -3 -3 -3 -3 -3 -3 -3 -3 -3 -3 -4 -4 -4 -4 -4 -4 -5 -5 -4 -4 -4 -4 -4 -4 -5 -5 -5 -6 -6 -6 -6 -6 -6 -7 -8 -9 -9 -10 -10 -10 -11 -11 -11 -12 -12 -12 -13 -13 -14 -14 -14 -14 -15 -15 -15 -15 -16 -16 -16 -16 -17 -17 -18 -18 -18 -19 -19 -19
-1 -1 -2 -2 -2 -2 -2 -1 -1 -0 -1 -1 -1 -1 -1 -2 -2 -3 -3 -3 -3 -3 -3 -4 -4 -4 -4 -4 -4 -5 -5 -5 -5 -5 -5 -5 -5 -5 -5 -5 -5 -5 -6 -6 -6 -7 -7 -7 -7 -7 -8 -9 -10 -10 -10 -11 -11 -11 -11 -11 -12 -12 -12 -13 -13 -14 -14 -14 -15 -15 -15 -15 -16 -16 -16 -16 -17 -17 -17 -17 -18 -18 -19 -19 -20 -20
-1 -1 -2 -2 -3 -3 -2 -1 -1 -1 -2 -2 -2 -1 -2 -3 -3 -3 -3 -4 -4 -4 -4 -4 -4 -4 -4 -4 -5 -5 -5 -6 -6 -6 -6 -6 -6 -6 -6 -6 -6 -6 -7 -7 -7 -8 -8 -8 -8 -8 -9 -10 -11 -11 -11 -11 -11 -11 -12 -12 -12 -12 -13 -13 -13 -14 -15 -15 -15 -15 -16 -16 -16 -17 -17 -17 -17 -18 -18 -18 -18 -19 -19 -19 -20 -20
-2 -1 -2 -3 -3 -4 -3 -2 -1 -2 -2 -2 -2 -2 -3 -4 -4 -4 -4 -5 -5 -5 -5 -5 -5 -5 -5 -5 -5 -6 -6 -6 -6 -6 -6 -6 -6 -6 -6 -6 -7 -7 -8 -8 -9 -9 -9 -9 -9 -9 -10 -10 -11 -11 -12 -12 -12 -12 -12 -12 -12 -13 -13 -14 -14 -14 -15 -15 -15 -16 -16 -16 -17 -17 -17 -18 -18 -18 -18 -19 -19 -19 -19 -19 -19 -20
-2 -2 -3 -4 -4 -3 -3 -2 -2 -3 -3 -2 -2 -3 -4 -4 -4 -4 -5 -6 -6 -6 -6 -6 -6 -6 -6 -6 -6 -6 -6 -6 -6 -6 -7 -7 -7 -7 -7 -7 -8 -8 -9 -9 -10 -10 -10 -10 -11 -10 -10 -11 -11 -12 -12 -12 -12 -13 -13 -13 -13 -13 -14 -14 -14 -15 -15 -16 -16 -16 -17 -17 -17 -17 -18 -18 -18 -18 -18 -18 -19 -19 -18 -18 -18 -19
-3 -3 -3 -4 -4 -4 -4 -3 -3 -4 -4 -3 -3 -4 -5 -4 -5 -5 -6 -6 -7 -7 -7 -7 -7 -7 -7 -6 -6 -6 -7 -7 -7 -7 -8 -8 -7 -7 -8 -8 -8 -9 -10 -10 -11 -11 -11 -11 -11 -11 -11 -11 -12 -12 -12 -12 -13 -13 -13 -13 -14 -14 -14 -14 -15 -16 -16 -16 -17 -17 -17 -18 -18 -18 -18 -19 -19 -19 -19 -18 -18 -19 -19 -18 -18 -18
-3 -3 -3 -4 -5 -5 -4 -4 -4 -4 -4 -4 -4 -5 -5 -5 -5 -6 -6 -7 -7 -7 -7 -7 -8 -8 -8 -7 -6 -6 -7 -7 -7 -8 -8 -8 -7 -8 -8 -9 -9 -10 -10 -11 -11 -12 -12 -12 -12 -12 -12 -12 -12 -12 -12 -13 -13 -13 -14 -14 -14 -14 -14 -15 -15 -16 -17 -17 -17 -18 -18 -18 -18 -19 -19 -19 -19 -19 -19 -19 -19 -19 -19 -19 -18 -18
Height
815 820 823 824 827 830 830 830 828 827 827 827 828 828 827 828 825 821 821 822 823 821 816 816 817 810 805 804 802 803 807 808 807 806 805 804 804 805 805 804 804 804 802 803 807 808 810 812 814 816 817 819 821 822 824 825 827 828 830 832 833 835 837 838 840 841 843 845 846 848 849 849 851 852 853 855 855 857 857 858 859 860 860 861 862 863
817 821 825 827 829 830 829 829 828 826 825 825 827 826 826 828 824 820 822 822 824 823 815 815 816 808 803 801 798 799 802 801 801 801 799 798 799 798 798 798 798 798 799 802 804 805 807 809 810 812 814 815 816 818 819 820 822 824 826 828 830 832 834 835 836 838 839 841 842 843 845 846 848 850 850 852 853 854 855 856 856 857 858 859 860 860
821 822 826 829 830 830 829 829 827 826 826 826 828 829 828 827 822 821 823 824 825 823 816 814 815 806 798 798 795 795 795 790 789 791 789 790 792 792 791 792 794 796 797 798 799 800 803 804 806 808 809 810 811 813 815 817 819 821 823 824 827 828 830 831 833 834 836 838 840 841 843 845 846 847 848 849 850 851 852 853 854 855 855 856 857 858
823 824 829 831 831 831 830 828 827 827 828 827 829 830 827 825 824 821 822 825 825 823 817 815 818 809 798 795 788 785 788 782 781 783 783 784 784 783 784 786 788 790 792 793 794 796 798 800 802 802 804 806 808 810 812 814 816 817 819 820 822 824 826 828 830 831 833 836 838 840 841 843 844 845 846 847 847 848 849 850 851 852 853 854 855 856
824 829 833 831 831 832 830 828 828 829 829 828 829 829 825 825 828 825 826 828 822 820 820 818 817 805 793 791 781 774 781 780 777 780 781 781 779 778 780 781 782 783 785 788 789 791 793 795 796 797 799 802 804 805 806 808 810 812 814 816 818 820 822 825 827 828 831 833 836 838 839 841 842 843 843 844 844 845 846 847 848 849 850 851 852 853
826 833 834 831 832 831 829 829 828 830 830 828 829 832 830 829 830 829 831 829 820 816 817 817 817 801 786 788 782 774 777 775 774 777 776 776 776 777 778 776 777 779 780 782 784 786 788 789 792 794 796 798 798 800 801 803 805 807 810 812 815 817 819 821 823 825 828 829 831 833 834 835 837 838 839 840 841 842 843 844 845 847 847 849 850 850
830 835 835 833 833 831 831 831 829 830 831 828 830 836 835 832 830 829 831 829 822 817 815 817 821 813 795 784 780 777 775 772 771 772 770 771 773 773 773 771 773 775 777 779 780 781 784 785 788 790 791 793 793 795 798 800 802 804 806 809 811 813 815 817 819 822 824 825 827 828 829 830 831 833 834 836 838 840 841 842 843 844 845 846 847 848
832 834 835 835 833 832 831 828 827 830 829 826 831 837 833 830 830 830 833 834 829 824 821 820 820 821 809 785 774 776 773 768 768 767 767 769 770 768 767 767 768 770 772 775 777 778 780 781 783 785 786 788 789 791 795 797 799 801 803 805 807 809 812 814 816 818 819 821 822 824 826 827 828 829 832 834 836 837 838 839 840 841 842 843 844 845
832 830 831 833 832 832 828 826 828 828 825 825 834 837 832 833 834 835 838 836 836 832 822 819 819 820 809 784 773 776 772 766 762 760 762 763 765 765 764 764 765 766 768 770 772 773 775 777 777 779 782 784 787 789 791 792 795 797 800 802 804 807 808 810 812 814 815 817 819 821 822 824 826 828 830 832 833 834 835 837 838 839 840 840 842 843
831 830 831 831 829 827 825 829 832 827 825 830 837 836 834 839 839 839 840 835 837 832 815 813 818 814 799 777 771 774 768 763 758 756 760 760 762 763 762 763 763 765 766 766 767 768 769 770 772 775 779 782 784 787 788 790 792 795 797 799 801 803 804 806 808 810 812 814 815 817 819 821 823 825 828 829 830 832 833 834 836 836 837 838 839 840
833 834 834 831 826 825 827 833 835 832 832 834 835 831 828 836 840 840 839 835 834 824 809 811 813 811 801 776 764 767 760 753 752 754 757 757 758 760 759 759 760 761 762 762 763 764 765 767 770 774 776 778 781 784 787 788 790 792 793 795 797 799 801 802 804 806 808 810 811 813 815 817 820 822 824 825 827 829 830 831 833 834 835 836 837 838
834 833 831 828 827 828 829 832 836 838 838 833 832 829 822 825 832 833 834 835 829 811 803 812 812 812 806 774 754 757 754 751 751 748 746 747 749 752 753 754 755 756 757 759 761 762 764 767 769 772 773 775 778 780 783 784 786 788 789 791 793 795 797 798 800 802 804 806 808 810 812 814 816 818 820 821 823 825 827 828 830 831 832 833 834 835
824 828 830 828 827 829 826 827 833 837 838 833 829 830 825 821 822 821 823 826 821 809 806 812 808 804 797 772 755 754 751 750 751 746 743 743 743 744 747 749 751 753 754 756 758 759 762 764 765 767 769 771 774 775 777 780 782 784 786 787 789 790 793 794 796 798 800 802 804 806 808 810 813 815 816 818 820 822 824 825 827 828 829 830 832 833
813 821 830 826 822 825 823 819 819 824 834 833 825 823 821 820 821 817 817 816 809 807 811 812 805 798 785 764 751 748 743 743 746 746 745 743 742 739 741 745 747 750 751 752 754 756 757 759 760 761 764 766 768 770 773 776 778 781 782 784 785 787 789 791 793 795 797 799 801 803 805 807 810 812 814 815 817 819 821 822 823 824 826 827 828 830
811 808 815 818 816 821 822 817 813 816 828 830 823 821 817 815 816 812 811 807 800 803 812 814 804 788 770 751 742 741 739 739 740 743 744 743 743 741 741 743 745 746 749 750 752 753 753 755 757 758 760 762 764 767 770 772 775 777 779 780 782 783 785 787 789 791 794 796 798 801 802 805 807 809 811 813 814 816 817 818 820 821 823 824 826 827
814 802 811 823 821 823 822 820 820 817 819 823 822 820 816 812 809 809 811 808 807 811 812 808 794 774 758 744 739 740 738 738 739 740 741 740 741 744 742 741 742 744 747 750 751 751 752 754 756 757 758 760 762 765 767 769 771 773 775 777 779 781 782 784 786 788 791 793 795 797 799 801 804 806 808 810 811 813 814 815 817 818 820 821 823 824
812 803 816 827 821 825 825 821 823 817 811 817 818 814 814 815 809 809 814 815 818 818 804 793 781 769 760 745 735 737 735 735 740 739 737 737 741 743 739 739 742 744 746 750 751 752 753 755 755 756 757 758 760 761 763 765 767 769 771 774 777 779 781 783 784 786 788 790 793 795 797 798 801 803 805 806 808 809 811 813 814 816 817 818 820 821
813 805 814 822 815 821 829 824 823 822 816 813 814 811 812 817 813 811 817 818 818 816 800 786 776 768 765 749 735 736 733 732 737 739 739 741 744 742 738 740 744 746 749 751 752 753 754 755 755 756 757 757 758 759 761 763 766 768 770 771 774 776 778 781 783 784 786 788 790 792 793 795 798 800 802 803 805 806 808 809 811 813 814 815 817 819
817 807 809 823 821 821 830 825 815 819 821 815 815 818 813 812 811 812 818 814 810 809 797 783 776 771 764 749 734 731 731 730 734 739 740 739 740 740 738 740 744 748 751 751 751 753 754 754 755 755 756 757 759 760 761 764 765 767 769 771 773 774 777 779 781 783 785 786 787 789 791 793 795 797 799 801 802 803 805 806 808 810 811 813 815 816
817 810 807 821 827 822 824 821 808 809 822 824 822 821 815 812 810 808 812 810 804 802 792 780 773 763 751 741 731 727 729 731 732 735 736 734 736 739 739 739 743 747 748 748 750 752 752 753 754 755 756 757 759 760 762 763 765 766 768 769 772 774 776 778 780 781 783 784 786 787 788 790 792 795 796 798 799 800 802 803 805 807 809 811 812 813
818 815 807 814 829 822 810 808 799 794 807 819 821 820 816 814 813 810 809 806 799 796 793 785 769 747 736 733 726 723 726 729 730 731 731 731 734 739 741 742 743 745 746 747 748 749 750 752 753 754 756 757 759 761 761 762 763 764 766 767 769 771 773 775 777 779 780 782 783 784 786 787 790 792 794 795 796 797 799 801 803 805 807 808 810 811
814 816 810 809 816 807 791 792 795 789 791 798 802 803 804 806 808 808 806 800 796 793 785 777 758 733 725 728 724 724 726 726 729 731 730 731 733 736 739 741 742 744 744 744 745 747 749 750 751 753 755 756 758 759 760 761 762 763 764 765 767 769 770 772 774 776 778 779 781 781 783 785 787 790 791 792 793 795 796 798 800 802 804 806 807 809
814 817 815 806 799 790 785 791 797 794 792 793 792 790 795 801 799 794 791 787 790 790 781 778 763 732 720 725 724 723 724 724 729 733 731 731 733 735 738 739 742 743 741 742 743 744 746 747 750 752 753 754 755 756 757 759 760 761 761 763 765 766 768 770 772 774 776 777 778 779 781 783 785 787 788 790 791 792 794 796 798 800 801 803 804 806
815 813 812 804 792 783 786 797 802 800 797 794 790 790 794 793 784 781 781 781 784 782 779 785 768 731 722 733 730 726 728 728 731 735 734 732 733 736 738 738 739 740 740 741 742 743 746 747 749 750 750 751 752 753 755 756 758 760 760 762 763 764 766 768 771 773 774 775 776 777 779 781 782 784 786 787 788 790 792 793 796 798 799 800 802 804
810 807 807 805 795 783 779 786 790 794 798 792 783 784 787 784 783 785 786 790 786 770 769 779 759 726 727 739 735 732 734 732 732 737 739 738 737 736 737 737 738 739 739 740 742 744 746 746 746 747 747 748 749 751 752 754 756 758 759 760 762 763 765 767 769 771 772 773 774 775 776 778 780 782 783 785 786 787 789 791 794 795 796 798 800 802
807 805 803 800 798 790 778 769 766 772 786 788 780 780 782 782 786 784 782 791 785 764 765 772 752 729 728 733 733 735 737 737 739 740 741 741 740 738 738 737 737 737 737 738 740 742 743 743 744 743 744 745 746 748 750 752 754 756 758 760 761 763 764 765 767 769 770 771 771 773 774 776 778 779 780 782 783 785 787 789 791 793 794 796 798 800
811 808 801 793 789 782 769 759 760 767 776 777 773 775 779 781 784 781 780 781 770 762 764 754 740 738 734 731 736 740 741 745 746 744 744 744 743 742 741 739 737 737 736 737 740 741 741 741 741 741 741 742 744 746 748 750 752 754 757 759 760 762 764 764 766 767 767 768 769 770 772 773 775 777 778 779 781 783 785 787 789 790 792 794 796 798
813 807 800 797 789 775 765 761 766 775 778 774 773 775 779 783 785 785 779 764 755 764 761 737 731 741 736 734 745 750 750 752 751 749 750 749 748 747 745 742 740 737 736 737 739 739 739 739 738 738 739 740 742 744 746 747 750 752 754 756 758 760 762 763 764 764 765 766 766 767 769 771 773 775 776 777 779 781 783 785 786 788 790 792 794 796
814 804 796 798 794 781 775 774 778 784 784 779 778 777 776 780 781 780 772 759 757 764 752 733 735 739 737 747 760 760 759 759 756 756 756 754 752 750 747 745 742 739 738 738 738 738 737 736 735 735 736 738 740 742 743 746 747 749 751 753 755 757 759 761 762 763 763 763 764 765 767 769 771 773 774 776 778 780 781 783 784 786 788 790 792 794
815 805 796 797 797 786 781 782 785 786 784 780 779 778 778 778 775 772 768 761 761 760 750 745 747 745 752 769 773 767 765 764 760 758 757 756 754 751 749 747 745 743 742 741 740 739 738 736 734 734 736 738 739 740 741 742 743 745 746 748 751 753 755 758 760 761 762 762 762 764 766 768 769 771 772 774 776 778 779 780 782 784 786 788 789 791
814 807 798 798 799 788 778 780 784 786 788 787 782 779 778 775 770 769 768 765 765 762 755 755 759 763 771 780 778 772 770 766 763 761 759 758 755 752 752 750 749 749 748 746 744 741 739 738 737 738 739 738 737 738 738 738 739 741 743 745 746 748 751 754 756 758 759 760 761 762 764 765 767 768 770 772 774 775 777 778 780 782 783 785 787 789
815 812 804 802 804 792 778 782 786 786 786 783 782 784 781 778 776 775 777 782 782 776 771 773 782 789 789 786 782 778 775 771 769 768 764 760 757 757 758 758 757 756 754 751 748 744 742 740 738 738 737 736 735 735 734 734 735 737 738 740 741 744 748 750 752 754 756 758 759 760 761 763 764 766 768 770 772 773 774 776 778 779 781 783 785 787
815 814 806 803 805 793 781 787 792 790 787 785 792 799 791 784 785 784 789 798 798 793 795 801 805 803 798 794 788 783 780 778 776 773 768 764 763 765 766 766 764 761 759 756 752 748 744 741 739 737 735 733 732 730 729 729 731 731 732 735 738 741 744 746 748 751 753 755 756 757 759 760 762 764 766 768 769 771 772 774 775 777 778 780 782 784
815 814 810 807 805 795 788 794 800 799 795 792 799 805 799 792 794 799 805 809 806 805 809 811 809 806 803 799 795 790 786 784 781 777 772 769 771 771 769 768 767 764 761 756 752 748 745 742 739 735 732 731 728 726 726 726 727 728 730 733 736 738 740 742 745 747 749 752 753 754 756 758 760 762 764 766 767 768 770 771 772 774 776 778 780 782
810 813 814 811 809 805 799 802 808 801 792 793 800 805 805 799 798 806 812 813 811 811 810 810 808 807 805 801 798 796 790 785 781 776 771 770 773 773 772 770 768 765 761 756 752 748 745 742 738 734 730 728 725 724 724 724 725 726 728 730 732 734 737 739 741 744 746 748 750 751 753 755 757 760 761 763 765 766 767 769 770 772 774 776 778 779
807 813 817 813 811 811 804 803 803 788 780 796 807 805 806 805 802 806 810 812 815 814 811 812 811 807 806 802 798 796 790 783 778 772 769 771 773 776 777 774 770 765 760 756 753 750 746 743 739 734 730 726 725 724 722 722 723 724 726 727 729 731 734 736 738 741 743 745 746 748 750 752 755 757 759 760 762 763 764 766 768 770 772 774 776 777
812 812 817 814 809 809 807 804 798 781 783 810 824 818 820 819 813 813 811 809 814 815 812 814 812 807 805 801 797 795 789 782 775 768 767 771 774 775 776 773 769 765 760 757 754 751 748 744 739 735 730 726 725 723 722 721 721 722 724 725 727 729 731 733 735 737 739 741 743 745 748 750 752 754 756 757 758 760 761 763 765 768 770 772 773 774
817 815 817 817 810 807 811 811 801 790 803 833 841 830 826 821 813 814 812 805 808 814 813 814 813 810 806 802 798 794 788 784 778 769 765 768 769 769 768 766 765 763 759 756 753 749 747 743 739 735 730 726 724 723 722 721 721 722 723 724 725 727 729 731 732 734 736 738 741 743 746 748 750 752 753 754 755 757 758 761 763 765 767 769 770 771
821 820 820 822 819 813 816 815 804 801 822 845 843 828 822 816 809 807 805 801 806 813 814 814 814 811 806 804 801 796 793 791 784 773 769 769 768 766 765 762 760 758 757 755 753 751 747 742 738 734 730 726 723 722 721 721 721 721 721 722 724 726 727 728 730 731 734 736 739 742 744 746 748 750 750 751 753 754 756 758 760 762 765 766 767 769
824 827 826 828 828 823 822 819 810 816 837 846 837 828 822 810 803 806 809 809 812 815 816 815 814 811 807 806 804 801 801 798 790 781 777 774 770 767 766 764 760 757 755 752 751 750 746 741 737 733 729 726 722 721 720 720 720 720 720 721 723 723 724 726 728 730 733 736 738 740 742 744 746 747 748 749 750 752 754 756 758 760 762 764 765 767
833 836 833 833 833 830 829 824 813 820 840 843 834 830 821 805 805 821 830 827 823 821 818 817 814 811 809 808 806 804 802 798 794 789 782 777 773 769 766 765 762 758 755 752 749 747 743 739 735 731 727 724 721 720 719 719 719 719 719 720 721 721 722 724 727 730 732 734 737 739 741 743 744 745 746 747 749 750 752 754 756 757 759 761 763 764
851 847 840 840 840 835 835 831 819 818 832 837 832 828 821 815 822 836 837 832 828 826 822 818 814 811 809 808 806 804 799 795 792 788 782 779 777 772 768 764 760 756 754 751 748 745 742 737 732 728 725 722 720 719 717 717 717 717 718 719 719 720 722 724 727 729 731 733 735 737 739 741 742 743 745 746 747 749 750 752 753 755 757 759 760 761
863 857 852 852 852 850 848 843 836 832 834 836 834 831 829 831 838 840 835 829 828 826 823 819 815 812 809 806 803 800 797 793 790 786 782 779 777 773 769 765 761 756 752 748 745 743 740 735 729 725 722 719 718 717 716 716 716 716 717 717 718 720 723 725 727 729 731 733 734 736 737 739 740 742 743 744 746 747 748 750 751 753 754 756 757 758
867 868 868 863 861 868 867 855 848 845 842 842 844 843 840 839 839 837 834 830 827 824 821 818 814 811 808 805 801 797 794 792 789 785 782 778 775 771 767 764 761 756 751 747 744 741 738 733 727 722 719 716 716 715 715 715 715 715 716 717 718 721 723 724 727 728 730 732 733 735 736 737 739 740 742 743 744 745 746 748 749 750 752 753 754 755
870 874 875 868 864 870 868 856 849 846 843 844 846 844 841 838 837 836 835 832 828 824 822 818 814 810 807 804 799 796 793 791 788 785 781 777 772 768 765 762 759 755 751 747 743 740 736 731 725 720 717 715 715 715 715 715 715 715 716 717 718 720 722 723 725 727 729 731 732 733 735 736 737 739 740 742 743 743 744 745 747 748 749 750 751 752
869 869 870 868 865 864 857 849 848 846 844 845 845 841 838 838 838 837 835 832 829 826 823 820 816 811 806 802 798 795 793 790 787 784 781 776 771 767 764 760 756 753 751 746 742 738 734 729 724 719 716 715 715 715 715 716 716 717 717 718 719 720 721 723 724 726 728 729 730 732 733 734 736 737 739 740 741 741 742 743 744 745 746 747 748 749
866 865 867 865 867 866 857 848 847 846 844 843 841 838 838 839 838 837 835 832 831 828 825 821 817 811 805 801 798 795 792 789 787 783 778 774 770 765 761 758 755 752 749 746 742 738 733 728 723 720 718 717 716 716 716 717 717 718 718 719 720 721 722 723 724 725 727 728 729 730 731 732 734 736 737 738 739 740 740 741 742 743 743 744 745 745
866 864 866 865 866 865 858 850 847 844 841 840 838 837 837 837 835 834 834 833 832 829 825 821 816 811 805 801 798 795 791 789 786 781 777 774 769 765 761 759 755 752 748 746 742 738 733 729 725 722 720 719 718 717 718 718 718 718 719 720 721 721 722 723 724 724 725 727 728 729 730 731 732 734 735 736 737 737 737 738 739 739 739 739 740 741
867 866 867 866 863 858 852 847 844 840 834 832 834 837 837 835 833 831 831 831 830 827 823 819 815 812 807 802 798 794 790 787 784 780 777 773 768 764 761 758 755 751 748 745 741 738 734 730 727 724 722 720 719 719 718 718 718 719 719 720 720 721 721 722 723 723 724 725 727 727 728 729 731 732 733 734 734 735 735 735 736 736 735 736 736 737
869 869 868 866 864 860 853 849 849 845 835 830 833 836 834 833 832 829 828 827 826 823 820 816 812 810 807 802 797 792 788 785 782 780 776 771 766 762 760 757 753 750 747 743 740 737 734 731 728 726 723 722 721 720 719 719 718 718 719 719 720 720 720 721 721 722 723 724 725 726 726 728 729 730 731 732 732 732 732 732 733 733 733 733 733 734
869 869 868 868 867 863 856 852 851 847 839 833 833 833 832 830 830 827 825 824 822 819 818 815 810 806 802 798 794 791 787 783 781 778 774 769 764 761 758 756 753 749 746 743 740 737 734 731 729 727 724 723 721 720 719 719 718 718 718 718 718 719 719 719 720 721 721 722 723 724 725 726 727 728 729 729 730 730 730 730 730 730 731 731 731 731
Wind_Speed
3 3 1 3 4 5 3 3 4 3 4 4 2 2 4 4 5 5 3 4 0 1 6 8 8 13 13 11 10 9 9 12 13 11 10 10 10 11 12 13 13 14 14 18 25 28 31 33 34 34 33 33 32 31 30 31 31 32 31 31 31 30 29 29 30 30 30 29 28 26 25 25 24 22 21 20 20 19 19 20 20 20 20 19 18 18
5 2 4 6 6 6 4 4 2 1 0 1 1 2 4 3 5 5 3 4 1 1 6 5 6 13 14 12 11 7 8 12 14 14 14 13 12 11 13 15 14 12 11 13 18 25 30 32 33 34 34 34 33 34 34 34 34 33 33 33 32 31 31 31 31 31 31 31 30 28 28 27 25 23 22 20 19 17 17 18 19 20 20 20 19 19
4 3 7 5 3 1 4 3 1 2 1 2 1 1 4 4 4 5 2 2 0 1 5 5 4 12 15 13 13 9 10 13 14 17 17 15 14 13 13 14 13 11 10 11 14 21 28 31 33 34 35 36 36 36 36 36 35 34 34 34 33 33 33 33 32 32 31 30 28 27 25 24 23 21 20 18 16 16 16 16 17 18 19 20 19 19
1 4 5 2 2 2 3 2 4 5 3 2 2 1 4 4 1 3 4 4 2 3 6 6 5 10 14 12 13 11 11 13 13 15 15 13 15 16 15 13 13 14 13 12 13 16 24 29 31 33 34 36 36 36 37 37 36 36 36 35 34 34 34 34 34 33 31 28 26 23 20 19 19 19 19 18 18 18 18 18 18 19 19 19 19 19
4 4 0 3 2 1 0 4 4 3 3 4 4 4 4 3 2 5 4 5 5 4 4 4 5 7 8 7 9 7 5 11 11 10 12 13 14 14 12 12 14 15 14 14 14 14 19 25 30 33 34 35 36 36 38 39 40 39 38 37 36 35 34 33 33 33 31 28 24 21 19 18 19 19 19 20 20 20 19 19 19 19 20 19 19 19
4 4 2 3 3 2 3 3 1 3 1 5 3 5 4 2 2 3 5 6 5 6 2 2 4 6 6 6 9 8 5 8 7 8 13 14 13 11 10 12 12 13 13 13 14 15 18 24 28 31 33 35 36 38 40 41 41 40 40 39 37 35 34 33 32 32 31 28 27 27 27 25 25 24 24 25 24 23 22 21 20 20 20 20 19 19
2 1 3 2 0 2 3 2 5 5 4 3 3 4 4 3 2 3 4 3 1 5 4 2 1 5 7 10 11 9 9 10 6 8 12 12 11 11 12 12 11 11 11 11 13 14 17 22 25 27 33 36 37 39 40 40 40 40 40 40 39 37 35 33 32 31 31 30 30 31 33 32 30 29 29 28 26 23 22 22 21 21 20 19 19 19
2 1 1 1 2 2 1 3 5 6 6 3 4 4 2 1 2 3 0 1 2 5 5 2 4 3 6 9 9 6 7 10 8 9 11 9 10 12 13 12 12 12 12 11 12 13 15 21 25 28 33 37 38 38 38 39 40 40 40 41 41 39 37 35 33 33 34 34 33 33 32 31 31 30 28 25 23 20 19 19 19 19 19 18 18 18
2 4 5 4 3 2 4 5 5 7 4 5 4 3 2 3 4 2 1 2 2 3 5 2 4 2 6 8 7 6 7 9 10 11 12 11 11 12 12 12 12 12 12 12 13 14 16 22 28 32 35 37 37 37 38 40 41 41 40 40 40 40 39 36 35 35 36 36 35 34 32 30 28 26 23 20 20 19 18 18 17 17 16 17 17 17
2 4 7 6 4 5 5 4 4 5 3 4 2 1 1 2 2 2 2 2 2 2 5 5 4 2 5 7 6 3 5 8 10 10 10 11 10 10 11 11 10 9 9 11 13 14 19 26 31 33 34 35 36 36 37 38 39 40 40 39 40 40 39 38 36 36 36 36 36 35 33 31 27 24 22 21 20 19 19 19 18 17 16 15 15 16
2 1 3 4 4 5 4 2 2 3 2 0 3 3 4 2 1 2 2 2 3 2 7 6 7 5 3 7 5 3 5 7 7 7 8 9 9 10 11 10 10 9 9 10 11 13 19 26 30 31 32 34 35 35 35 36 37 40 40 40 40 40 39 39 38 37 37 35 35 34 33 31 29 27 26 24 23 21 20 20 19 17 16 15 15 16
2 1 2 2 2 4 5 1 2 3 2 3 4 3 4 4 3 4 3 4 2 4 7 5 6 6 3 7 7 6 7 6 7 7 8 10 11 11 11 11 10 10 9 9 9 10 12 16 21 26 30 32 33 34 36 37 37 39 40 40 40 39 40 40 39 38 37 35 34 33 31 30 30 29 28 27 25 23 21 20 18 16 16 15 15 16
3 4 3 1 1 4 6 1 3 4 4 4 3 4 3 3 3 3 2 1 2 6 6 3 4 3 6 10 12 12 11 9 9 9 9 10 11 11 11 11 10 9 9 9 8 9 9 10 15 22 27 29 32 35 37 38 38 39 40 41 41 40 40 40 39 38 37 35 34 32 31 30 29 28 28 27 25 23 21 20 18 18 17 17 17 16
3 4 1 1 2 3 7 4 2 2 2 4 3 4 3 1 1 3 4 2 4 5 4 2 2 2 6 7 13 16 16 13 11 10 11 11 11 12 11 10 9 8 9 9 9 9 9 10 14 21 26 29 31 34 36 37 38 39 39 40 40 39 39 39 38 37 36 35 33 32 31 30 29 29 27 26 24 23 22 20 19 19 18 18 17 17
1 5 3 4 2 3 7 6 5 4 3 4 4 5 4 4 3 4 4 4 4 4 3 2 1 4 4 4 8 11 11 10 9 9 9 10 11 9 7 6 8 8 8 8 8 10 10 11 15 21 25 28 31 33 35 36 37 37 37 39 39 38 38 38 38 36 35 34 33 32 31 30 29 28 26 25 24 23 21 20 20 19 19 18 18 17
3 6 4 1 1 5 5 4 3 5 1 3 2 4 2 4 5 3 4 6 3 2 4 2 3 6 5 7 10 9 10 9 8 6 6 8 8 4 4 6 7 7 7 7 8 9 9 11 16 20 23 26 29 31 33 35 37 37 37 37 36 37 37 37 37 36 35 34 32 32 31 30 29 27 26 24 23 22 21 20 19 19 19 18 18 18
1 5 3 1 1 4 4 2 2 2 1 1 2 2 5 5 5 2 4 3 2 2 4 3 5 6 4 10 12 8 9 8 5 3 6 7 5 2 6 7 6 6 6 6 6 7 7 8 13 18 22 25 28 31 33 35 37 37 37 36 35 34 34 35 35 35 34 34 33 32 31 30 28 27 26 24 23 22 21 20 19 19 18 18 19 18
2 5 5 3 2 4 3 2 3 3 3 4 3 5 4 1 3 2 1 4 3 4 5 4 8 6 2 6 7 3 6 7 5 4 6 6 5 4 7 7 6 6 4 4 5 5 5 7 12 17 20 24 27 30 31 32 33 34 35 36 36 35 35 35 35 35 35 35 34 33 31 29 28 26 24 23 22 21 20 19 19 19 19 19 19 19
3 2 6 1 2 3 1 2 4 5 2 4 3 3 1 2 1 1 2 2 3 5 5 4 8 6 5 6 6 7 9 7 7 6 6 7 7 7 8 8 7 5 4 5 5 5 6 8 12 16 19 21 24 26 27 29 30 31 32 34 35 35 36 35 35 35 34 34 33 32 30 28 26 24 23 22 21 20 19 18 18 18 19 19 19 19
2 1 5 2 1 2 2 1 3 2 1 2 1 3 0 3 3 3 3 3 3 4 5 4 4 4 7 7 9 13 10 6 8 7 7 10 9 8 8 8 7 6 6 7 6 7 7 8 13 17 18 21 22 24 26 27 29 30 32 33 34 34 34 34 34 34 33 33 32 30 28 26 24 23 22 21 20 19 18 18 18 19 20 20 19 19
1 2 4 4 3 1 2 4 7 6 4 3 1 3 3 2 1 1 2 3 4 4 4 5 6 7 6 6 10 13 9 7 9 8 8 9 9 9 9 8 7 6 7 7 7 8 7 8 13 17 18 20 21 23 25 27 29 30 32 33 34 34 34 34 34 34 33 32 31 29 27 25 24 22 21 19 18 18 18 18 20 20 21 21 20 19
1 3 3 3 2 4 7 7 8 9 8 7 6 6 7 5 3 1 5 3 4 4 4 4 10 9 5 5 8 9 7 7 8 7 7 7 7 9 8 8 8 7 8 8 8 8 7 8 12 16 18 19 21 23 26 28 29 30 32 33 34 34 35 35 35 34 33 32 30 28 27 25 24 22 20 19 18 18 19 20 21 21 22 21 20 20
2 2 2 6 7 9 9 5 4 5 5 5 5 6 5 5 6 5 7 4 2 3 3 2 10 9 4 5 6 6 7 8 5 5 5 6 7 7 7 8 8 7 8 8 7 7 7 9 13 16 18 20 23 25 26 28 29 30 31 32 33 34 35 34 34 34 32 31 29 28 26 25 24 22 21 20 20 20 20 21 21 21 21 21 20 20
2 2 2 5 7 7 5 2 2 2 1 3 5 5 6 6 7 7 6 3 2 4 3 2 10 8 2 2 3 3 3 4 3 2 3 5 6 5 7 7 6 7 7 6 6 6 5 8 12 14 17 20 22 24 26 27 28 29 30 31 33 33 34 33 33 32 32 31 29 28 27 26 24 23 22 22 22 22 22 22 21 21 21 20 19 18
2 2 2 2 7 8 5 4 4 2 1 4 5 5 7 8 6 2 1 2 2 9 7 5 10 10 2 3 5 5 5 5 6 4 3 5 6 7 7 7 6 6 6 5 5 5 6 8 10 12 17 20 21 24 25 26 27 28 29 30 31 32 32 32 32 32 31 30 29 28 27 26 26 25 24 24 23 23 23 23 23 22 21 19 18 18
3 3 3 3 6 8 8 8 5 2 3 3 3 5 8 10 9 5 2 2 6 11 7 6 11 12 8 4 5 8 8 7 7 7 6 6 6 7 7 7 7 6 6 6 6 6 7 8 8 11 16 19 22 23 25 26 26 27 27 28 30 30 31 32 32 31 31 30 30 29 28 27 27 26 25 25 24 24 24 24 24 22 20 19 19 19
0 3 5 8 10 12 14 14 5 3 0 4 5 5 6 8 10 7 4 5 8 5 4 12 15 13 15 12 6 7 7 6 7 8 8 8 7 7 7 7 7 6 6 6 5 6 7 8 9 12 15 19 21 23 25 26 26 27 27 28 28 29 30 31 31 31 31 30 30 30 30 29 28 27 26 25 25 25 25 25 24 23 21 19 20 20
0 6 8 11 16 18 19 19 9 5 6 10 10 9 7 6 6 8 11 14 9 0 7 19 17 13 17 12 8 9 8 8 9 10 9 8 7 8 8 9 9 8 7 5 6 7 8 9 10 10 14 19 21 22 24 26 27 28 28 28 29 29 30 31 32 32 31 30 30 30 30 29 28 27 26 25 25 26 27 26 25 23 21 20 20 21
3 7 6 8 14 20 21 19 12 9 12 13 14 15 13 9 9 12 17 20 13 7 13 20 18 17 15 10 12 13 12 10 10 10 9 8 9 11 11 11 11 10 10 8 7 8 9 10 10 10 13 17 19 22 23 25 27 28 29 29 30 31 31 31 32 32 31 30 30 30 30 29 28 27 27 26 26 27 27 27 25 23 21 20 20 20
3 5 5 5 9 17 19 14 8 10 13 13 15 16 13 13 15 17 19 20 17 16 18 18 19 18 10 12 13 12 11 10 10 10 10 11 12 12 12 12 11 12 12 11 9 8 9 10 9 8 9 13 18 21 23 25 28 29 30 30 31 32 32 32 32 31 30 30 29 29 29 29 28 28 28 28 28 28 28 26 24 22 20 21 21 21
3 2 2 1 4 14 17 9 4 8 9 11 14 13 12 15 17 16 15 14 13 15 16 15 13 10 8 12 12 12 13 13 13 14 13 13 13 13 13 13 13 13 14 14 14 12 8 8 7 5 6 12 19 23 25 27 29 30 30 31 32 33 33 32 32 31 30 29 29 29 29 29 28 28 29 29 29 29 27 25 23 21 21 22 22 22
4 2 3 2 3 12 12 5 5 7 8 10 11 11 10 9 10 9 5 5 7 8 8 7 5 6 10 13 13 13 15 15 14 15 14 13 13 13 14 15 16 16 16 16 16 15 13 10 6 6 9 16 21 25 28 29 28 29 31 33 33 33 32 33 33 31 31 29 28 29 30 30 29 29 29 30 30 29 27 24 22 21 22 23 23 23
4 2 1 1 3 11 10 6 9 11 11 8 6 8 9 7 8 6 7 13 12 8 7 6 5 7 11 14 15 16 17 16 14 15 15 13 12 13 14 15 17 17 18 17 16 16 15 13 10 9 13 19 23 28 32 32 30 32 34 34 33 33 33 33 33 32 31 30 29 30 30 30 30 30 30 31 30 29 26 23 22 23 24 24 24 24
4 4 3 1 2 10 11 8 9 9 9 3 3 8 10 9 10 9 8 12 13 10 7 5 7 12 13 13 15 16 16 15 14 14 13 8 8 12 16 18 18 19 19 18 16 16 15 15 17 17 18 20 25 29 31 31 31 32 31 31 32 33 33 32 32 32 31 30 30 30 30 31 31 31 31 31 30 28 25 23 23 24 25 25 24 24
4 4 2 1 2 5 7 7 7 6 3 2 5 13 14 9 8 7 7 11 15 14 13 13 14 16 15 13 13 13 14 16 15 14 10 7 12 15 19 20 21 21 20 18 17 18 18 21 24 24 23 23 24 25 26 28 30 29 29 30 33 33 33 32 31 31 31 31 30 30 30 31 31 31 31 30 29 27 24 23 24 25 26 25 25 25
3 3 1 1 2 3 3 3 4 4 2 6 9 16 16 12 11 8 3 9 16 16 15 16 15 16 16 14 13 12 14 17 14 9 3 10 15 15 15 17 19 19 18 18 19 21 24 28 30 28 26 25 21 19 23 27 29 29 29 31 32 32 32 32 30 30 30 31 31 31 31 31 31 30 30 29 28 26 24 24 25 26 26 25 25 25
1 2 1 2 2 2 3 4 4 6 4 10 12 13 13 11 11 11 5 3 11 15 14 15 17 18 17 16 15 15 15 15 11 5 4 11 15 14 13 14 15 16 18 22 25 28 33 36 36 33 28 24 20 19 22 26 27 28 28 29 30 30 31 30 29 30 30 31 31 31 31 31 31 30 29 28 27 25 25 25 26 27 26 26 25 24
3 2 1 1 1 1 3 4 5 6 3 8 11 13 13 13 14 12 7 2 9 15 15 15 17 19 17 17 18 18 15 11 10 9 9 15 18 18 16 16 16 18 20 23 28 32 37 39 38 36 29 22 19 19 21 24 26 28 27 27 29 29 28 28 29 29 30 30 30 31 31 31 31 30 29 28 27 26 25 26 27 27 26 26 25 25
6 2 3 1 3 2 3 5 6 3 2 8 13 14 14 16 17 11 5 2 9 17 17 16 18 18 17 17 18 16 13 10 10 11 14 20 22 19 17 17 19 22 24 24 27 31 36 39 39 35 28 21 20 20 20 23 26 27 25 25 27 26 26 27 29 29 29 29 29 30 30 30 29 29 28 27 27 26 26 26 27 27 26 25 25 24
6 4 4 1 4 5 5 5 4 0 2 8 13 14 16 19 15 7 3 4 13 18 17 17 19 18 16 17 16 13 10 9 10 14 18 21 21 20 19 19 20 23 25 27 29 31 34 37 35 32 29 25 23 20 19 23 24 24 23 23 24 25 26 28 28 28 28 28 27 28 28 28 28 28 27 27 26 26 26 27 26 25 25 25 24 24
5 3 2 1 3 5 6 5 3 1 2 8 14 15 17 16 7 4 4 7 13 17 17 17 19 17 15 15 14 11 11 12 12 15 18 19 19 20 23 25 26 27 27 29 32 34 34 33 32 31 31 30 24 19 20 23 23 22 21 21 23 25 26 26 25 25 26 26 26 25 26 26 27 27 26 26 26 25 26 26 25 25 25 24 24 23
5 4 3 4 4 5 5 6 5 1 3 13 18 15 11 8 4 3 6 9 11 15 16 17 17 15 14 15 14 13 15 18 17 16 16 17 18 19 23 26 27 27 28 30 32 32 32 32 32 31 32 30 23 19 20 23 22 20 20 21 22 24 23 22 23 25 25 24 23 23 24 24 25 25 25 25 25 25 25 25 24 24 24 23 23 22
5 4 4 5 5 4 6 6 5 2 6 16 20 14 8 6 3 4 8 10 12 13 13 13 14 13 14 15 17 18 20 20 20 19 18 17 17 17 20 23 23 24 28 30 31 31 31 31 31 31 31 27 21 19 21 23 21 19 19 20 20 20 19 20 22 22 22 21 21 22 23 23 23 24 24 24 24 24 24 24 23 23 22 22 22 22
4 3 3 4 3 4 4 4 4 4 6 11 12 9 7 5 4 6 9 11 12 12 11 11 14 14 14 16 19 20 19 20 21 22 20 18 17 16 17 20 23 25 27 27 29 32 33 30 29 32 31 24 19 19 20 22 20 18 17 17 17 17 19 19 19 19 19 20 21 21 22 22 22 23 23 24 23 23 23 23 22 22 22 22 22 22
5 4 4 4 2 4 6 6 6 7 6 8 9 9 9 6 7 11 13 12 12 12 11 13 17 18 17 18 19 17 15 17 20 22 21 20 18 16 17 20 24 25 26 28 31 34 32 30 31 31 27 20 16 17 18 19 18 16 15 15 16 17 19 19 18 19 19 20 21 21 22 21 21 22 22 23 23 23 23 23 22 22 22 22 22 22
3 3 3 4 4 7 8 6 7 8 8 11 12 9 7 8 10 14 14 13 13 13 13 14 17 19 19 18 16 14 14 15 18 20 20 18 16 17 19 21 23 26 27 28 31 33 32 32 31 26 19 14 13 14 15 15 15 14 14 15 16 17 18 18 19 19 19 20 21 21 21 21 21 21 22 22 22 23 23 22 23 23 22 22 23 23
0 2 3 4 5 7 6 6 9 11 13 15 12 7 7 11 13 13 12 12 14 15 15 15 17 19 20 17 15 15 16 17 17 18 17 16 17 17 17 18 22 26 27 27 29 32 31 28 24 19 14 11 10 11 12 12 13 12 13 14 16 16 17 17 18 19 19 20 20 20 21 21 21 21 22 22 22 22 22 22 22 22 23 23 24 23
2 3 4 5 5 6 8 10 13 15 15 14 9 6 8 12 16 15 12 11 14 16 17 18 19 19 18 17 17 17 16 16 17 16 15 15 16 15 14 18 23 25 26 29 31 30 26 22 19 16 13 10 9 10 11 11 11 11 11 13 14 15 16 17 18 18 19 19 19 20 20 21 21 22 22 23 23 23 23 23 23 24 25 26 25 25
4 4 4 6 7 7 8 11 15 17 14 9 6 8 9 12 16 16 13 12 14 16 18 20 22 21 20 20 20 17 15 15 14 14 16 16 14 13 15 20 23 25 26 28 28 25 22 19 17 16 13 11 9 9 11 11 12 12 12 12 14 14 15 16 17 17 17 18 18 19 20 21 22 22 22 22 23 24 25 25 24 25 26 26 26 25
3 3 4 6 6 6 9 13 16 14 12 10 11 12 13 14 15 14 13 14 16 18 19 20 22 24 25 26 23 16 13 14 14 15 17 16 14 15 19 21 22 25 26 26 25 23 21 18 17 16 14 11 9 8 10 11 12 12 12 13 13 14 15 16 16 16 17 17 18 20 20 21 21 22 22 22 23 23 24 24 24 24 25 25 24 22
1 3 5 5 6 8 12 15 14 12 12 12 13 13 14 14 14 13 13 14 15 17 18 18 20 22 23 25 24 17 12 13 16 17 17 16 17 20 22 21 22 23 23 22 21 20 19 19 18 16 14 11 10 9 10 12 12 12 13 13 14 15 16 16 16 16 17 18 19 20 20 20 21 22 22 22 22 22 22 23 23 23 23 22 22 21
Wind_Direction
91 75 215 207 215 207 210 192 185 214 198 190 206 227 241 244 275 273 250 274 101 132 257 235 240 263 265 260 247 228 215 218 224 225 225 219 211 209 209 210 207 211 215 208 205 205 203 203 203 202 198 194 194 195 196 197 199 202 203 202 201 200 198 198 197 197 197 196 196 198 201 206 211 216 222 227 230 228 224 224 226 230 234 237 239 240
68 111 230 212 204 201 220 231 209 296 322 102 156 287 294 253 258 263 225 264 292 117 273 260 260 270 268 266 260 228 209 225 221 217 224 218 214 214 211 212 210 212 212 199 200 201 200 200 199 198 196 194 195 196 198 198 199 201 202 203 202 200 198 199 200 199 200 202 203 205 207 212 215 219 222 225 226 224 221 221 225 228 231 233 236 239
28 236 236 214 198 262 264 248 66 19 359 352 339 322 303 270 272 299 303 298 354 149 278 290 282 275 275 273 268 241 214 231 221 211 220 213 211 218 212 212 210 209 207 195 197 197 197 197 195 195 195 196 198 198 199 199 198 198 201 203 203 201 200 200 201 202 204 207 209 212 214 216 217 219 220 222 223 220 218 219 221 225 228 231 234 237
322 253 233 189 45 14 285 301 36 20 359 300 268 233 268 278 314 286 299 316 273 226 261 288 298 280 281 283 278 258 221 235 232 214 220 214 211 217 212 209 206 205 205 199 198 194 194 194 193 194 195 196 198 198 198 198 197 198 200 202 203 203 203 201 203 206 208 211 212 214 215 213 211 212 213 217 221 218 217 217 217 221 224 228 233 237
227 250 106 56 7 76 22 341 25 35 337 286 226 206 240 277 250 231 282 320 308 293 262 285 320 288 279 280 283 287 229 233 238 218 223 222 220 221 215 213 209 206 203 198 198 193 192 194 195 196 196 196 197 197 198 198 198 199 200 201 203 204 204 203 204 206 208 209 207 205 202 201 202 203 200 201 204 203 205 208 210 215 221 227 234 239
257 258 70 56 335 44 75 329 260 155 320 311 242 197 197 199 268 279 328 351 354 331 293 63 354 292 290 285 271 288 283 251 239 214 222 224 220 219 217 218 213 209 205 199 197 193 192 195 195 196 195 195 197 199 200 200 201 201 201 201 202 203 204 204 204 204 205 204 201 196 193 192 195 198 199 198 199 200 204 209 214 219 225 232 238 241
262 293 70 105 132 53 76 276 249 163 121 299 240 170 149 110 348 317 344 15 10 285 268 109 113 270 300 296 271 274 280 275 268 229 228 226 217 214 217 218 212 208 206 202 200 194 193 193 192 195 197 197 199 201 202 202 203 203 203 202 202 203 203 204 204 203 202 201 199 197 197 197 198 201 205 208 211 215 218 221 222 224 226 230 233 235
153 103 35 121 125 104 165 254 240 149 124 247 223 142 118 39 274 258 51 129 226 279 291 171 169 245 293 282 271 279 283 282 278 252 241 232 219 218 220 218 212 207 201 198 200 198 195 194 193 195 198 200 201 202 201 202 203 203 204 203 202 203 204 205 204 202 201 200 199 199 201 204 206 210 213 215 215 215 214 213 212 212 213 216 221 226
150 170 205 185 145 184 214 219 193 142 142 245 214 166 199 202 216 208 124 235 266 337 311 227 162 224 270 268 286 298 282 277 266 249 241 234 224 222 223 221 216 211 203 198 199 199 198 197 197 198 199 202 203 202 201 202 203 203 203 203 203 203 204 204 203 202 202 202 202 202 203 206 211 216 216 208 201 198 197 198 199 201 204 209 215 222
191 192 195 161 165 213 216 212 167 138 188 240 181 174 261 169 191 146 142 221 16 5 267 237 173 197 271 275 291 303 264 256 254 250 243 238 233 229 229 227 220 213 207 205 203 201 201 200 200 200 200 202 203 203 203 203 202 202 201 201 201 203 203 202 202 201 201 204 205 206 207 209 210 208 201 194 193 195 198 201 205 209 212 215 217 222
253 229 198 162 193 198 168 171 118 122 188 174 68 20 353 12 102 107 139 98 52 289 258 231 191 176 288 278 255 220 224 222 228 255 261 250 243 236 232 228 218 211 209 208 208 207 204 203 201 200 200 201 203 203 202 202 201 200 199 199 199 201 201 200 200 200 201 203 205 207 209 209 207 200 196 197 200 202 206 210 213 216 219 221 224 227
324 299 237 238 219 129 108 76 16 34 38 62 64 44 4 343 30 32 5 50 87 255 265 240 180 160 223 265 253 238 245 224 203 227 246 244 242 236 231 227 216 211 210 204 205 207 201 198 197 197 199 200 198 199 200 200 199 197 197 196 195 196 197 197 198 199 201 202 204 207 208 208 206 202 200 201 202 202 205 207 208 210 214 217 220 223
284 231 230 294 283 130 115 75 340 356 33 72 80 74 49 336 1 358 319 3 212 245 261 229 140 168 234 255 262 261 262 248 218 218 231 237 242 239 232 226 217 209 207 202 200 199 192 190 192 192 194 194 193 195 196 196 196 194 194 193 192 193 194 196 197 199 201 202 204 205 205 204 202 199 199 199 198 199 201 202 204 206 209 211 215 219
314 300 242 160 286 173 146 157 234 285 101 129 150 119 121 109 1 284 269 274 258 256 255 203 138 261 272 264 251 249 253 248 231 227 233 235 238 239 234 223 213 207 206 205 199 196 194 191 190 190 189 189 191 193 193 192 192 191 191 191 191 191 193 195 197 199 200 201 203 202 200 199 197 196 197 198 199 199 202 204 206 208 211 214 217 218
274 304 233 182 243 171 170 189 174 151 149 193 191 138 145 161 168 224 228 230 255 276 274 256 164 213 230 255 237 230 246 252 240 236 237 242 241 239 238 220 207 209 209 209 204 202 202 194 188 187 187 188 189 189 188 189 189 189 190 191 191 191 191 194 195 196 197 198 198 198 197 196 196 197 198 199 200 202 204 207 208 211 214 214 214 214
208 264 247 206 235 157 180 233 152 119 129 241 171 110 174 191 167 193 218 211 222 307 285 252 239 220 218 279 278 260 263 268 265 254 229 238 246 220 206 210 205 209 209 206 208 211 207 193 187 186 185 187 186 185 186 187 188 190 190 191 192 192 191 191 192 193 194 194 193 192 192 192 194 195 197 197 200 202 206 209 210 212 214 213 213 213
237 271 270 14 275 180 177 222 177 149 193 206 136 191 225 187 142 160 265 279 51 289 258 198 238 275 307 293 291 282 273 284 300 264 217 232 264 233 216 222 218 217 211 206 211 211 203 191 190 190 187 186 185 186 188 189 190 191 190 190 190 190 189 190 191 191 191 189 188 188 189 191 192 195 197 199 201 203 207 210 213 215 216 217 216 215
163 277 265 175 218 241 182 157 272 247 164 141 192 236 241 155 94 101 249 324 358 261 259 203 225 258 290 278 303 322 279 296 308 269 259 276 290 259 241 241 238 235 233 231 226 216 205 199 197 195 193 192 190 190 190 190 191 191 191 191 189 188 188 189 189 189 188 187 186 187 189 191 193 196 199 201 203 205 207 211 215 217 218 219 218 216
124 282 283 186 181 273 36 77 285 277 172 149 204 250 183 160 240 102 158 253 255 253 280 252 229 233 214 235 278 271 257 277 284 273 274 266 249 242 247 251 251 250 245 235 224 214 209 207 204 199 197 197 195 194 193 191 191 191 192 192 191 190 189 188 188 187 187 188 188 189 190 192 195 197 199 201 203 205 209 212 214 215 215 214 214 213
112 163 277 300 214 278 21 110 231 258 16 60 343 315 254 168 188 186 177 177 191 242 279 274 242 233 220 216 242 254 248 244 257 262 252 242 235 234 241 247 248 236 228 229 222 219 214 209 208 203 200 199 196 196 194 192 192 192 192 191 190 190 188 187 188 188 188 189 190 190 190 192 195 196 199 201 203 205 207 210 210 209 207 206 207 207
87 176 248 295 319 273 208 207 197 187 170 144 195 257 229 189 161 221 234 167 159 213 249 265 267 250 227 212 228 243 243 224 230 237 240 242 239 239 240 244 244 234 231 231 223 220 216 208 207 204 203 201 197 197 195 194 193 192 191 190 189 188 187 187 188 189 189 189 190 190 189 191 194 195 198 200 201 203 204 205 205 204 204 204 205 206
181 181 227 275 286 236 229 220 197 188 179 170 189 203 195 181 143 226 265 224 174 209 202 240 274 265 226 211 222 227 230 230 228 224 236 247 244 245 246 242 240 235 233 233 223 216 209 202 200 197 197 196 195 196 195 194 193 191 191 191 190 189 188 189 189 189 189 189 189 190 189 191 194 194 196 197 197 198 200 202 202 204 206 206 207 208
171 142 241 260 251 247 250 244 197 189 185 189 209 199 174 162 152 182 236 229 201 240 191 237 277 271 218 205 217 215 232 253 249 209 229 258 252 248 255 254 250 244 241 236 222 212 204 195 192 189 191 194 195 196 195 195 194 193 192 191 190 191 191 190 190 189 190 189 188 189 189 191 193 193 194 195 195 195 198 200 202 206 207 207 208 211
168 150 245 271 279 279 281 331 40 66 121 230 240 190 164 191 192 192 213 182 175 247 185 211 270 270 292 294 267 243 250 305 314 199 226 284 293 289 283 278 268 258 256 246 221 210 193 184 186 188 193 196 197 197 196 196 196 195 194 193 192 193 192 191 190 190 190 189 188 189 190 191 193 194 194 194 195 195 197 201 204 206 207 207 210 212
220 192 181 289 304 307 321 347 342 336 194 228 240 198 190 211 200 194 260 131 232 248 207 200 261 264 297 14 22 24 30 15 342 333 346 322 310 305 298 294 285 273 267 249 218 191 182 187 191 196 199 199 198 199 198 197 198 197 196 196 194 194 193 191 191 190 190 189 187 188 191 191 193 195 195 194 195 196 198 202 205 206 207 207 209 209
227 196 161 209 264 274 280 286 287 261 214 230 251 215 205 201 181 183 247 178 231 247 212 209 254 262 272 308 17 5 2 3 337 331 342 318 293 295 296 294 291 283 265 243 213 191 197 201 204 205 204 202 200 199 199 198 199 199 199 199 197 196 193 192 191 191 190 190 188 189 191 193 194 196 196 195 194 196 200 203 205 206 206 206 206 203
285 253 214 215 235 246 255 261 266 72 167 258 266 243 219 211 197 195 219 222 230 243 231 244 254 265 275 283 329 343 339 350 324 314 324 314 303 304 298 293 294 287 269 249 220 209 214 213 214 211 207 206 203 200 200 200 200 201 201 201 200 198 196 194 192 192 191 190 190 190 192 194 195 196 196 195 196 198 200 202 204 205 206 206 205 203
117 272 238 219 238 248 256 264 283 349 300 274 279 274 252 235 210 204 227 237 235 174 257 258 263 271 275 291 355 352 335 340 335 336 337 325 321 326 323 322 319 310 298 273 236 224 223 221 221 216 209 206 203 201 201 202 202 203 202 202 201 199 198 196 194 193 191 191 191 192 194 196 197 197 197 197 198 199 199 201 203 206 208 210 209 208
172 263 239 206 242 256 263 271 287 299 282 272 275 272 263 250 229 222 235 243 244 246 254 263 274 279 286 334 8 355 349 353 353 355 348 337 341 342 339 336 330 322 317 300 263 241 235 232 226 216 210 205 200 201 201 202 203 203 203 203 201 200 199 197 195 194 193 192 193 194 195 197 198 197 196 197 198 199 200 202 204 207 211 213 210 207
161 261 246 209 251 267 270 273 270 267 270 271 269 269 269 261 247 240 246 252 254 255 258 269 280 284 312 6 1 349 355 355 352 355 351 348 345 338 334 333 331 331 328 320 303 279 257 249 243 230 212 203 201 203 202 202 204 203 202 201 199 199 199 197 195 195 194 195 196 195 196 197 197 196 196 199 200 201 203 204 206 209 210 206 203 201
193 237 267 165 263 276 280 285 260 249 263 273 276 278 273 264 261 259 262 266 267 268 271 277 281 293 350 5 347 345 353 352 353 353 348 342 334 332 339 344 347 349 345 342 336 324 305 280 269 254 218 211 211 209 206 207 206 203 202 201 199 198 197 195 195 195 196 198 197 196 196 196 196 196 198 201 203 203 204 205 207 209 205 199 199 203
216 251 347 33 268 276 287 337 354 318 304 291 296 311 301 284 284 284 308 355 328 304 311 332 346 346 350 347 341 347 351 349 350 347 337 329 334 348 358 357 357 356 349 346 342 337 333 317 281 237 225 223 219 215 213 211 206 202 202 201 198 196 194 194 196 196 197 199 198 197 197 197 198 199 201 203 204 204 204 205 208 206 200 199 203 207
183 200 307 110 249 275 287 6 8 337 323 308 320 342 334 349 1 352 35 37 21 13 21 24 12 348 342 344 343 346 348 345 344 338 326 324 344 2 3 356 352 347 341 338 334 331 331 323 298 263 247 240 232 226 221 214 206 203 203 200 196 193 192 193 195 196 197 198 198 198 197 198 199 200 202 203 203 203 203 206 208 203 200 202 206 209
169 187 231 195 253 277 296 348 353 320 308 292 70 20 350 4 28 32 49 41 32 39 38 15 358 352 349 348 345 341 338 334 328 316 310 329 7 3 355 351 348 342 336 332 330 330 330 325 313 297 280 269 257 243 229 217 210 207 203 197 193 192 191 193 194 196 197 197 197 198 198 199 200 201 203 203 202 203 204 206 207 203 203 206 208 210
193 197 234 259 249 281 310 338 321 294 290 139 71 23 2 358 24 44 71 48 33 29 21 12 3 354 347 342 341 335 325 322 315 299 302 10 24 4 353 348 341 336 332 330 333 334 333 329 321 309 302 297 281 254 231 217 210 205 198 194 192 191 191 192 193 195 196 196 197 198 198 199 201 202 203 202 201 203 206 207 206 203 205 208 210 214
215 191 102 256 252 293 299 276 265 266 49 54 26 10 2 354 355 0 53 56 37 25 15 8 357 349 345 338 336 334 322 317 310 290 331 26 13 360 351 338 330 328 328 331 335 333 330 327 321 312 310 310 297 260 229 216 207 198 193 192 191 191 192 193 193 194 196 196 198 199 199 200 201 202 201 201 202 205 207 206 205 205 207 211 214 219
98 140 40 274 243 265 246 230 269 284 338 26 11 352 346 334 325 320 298 68 45 27 14 4 352 346 343 337 336 333 322 317 311 301 21 16 355 345 338 327 322 323 326 329 331 329 327 324 319 314 311 309 298 266 233 215 202 193 190 189 189 190 191 192 193 194 195 197 198 199 201 202 202 202 201 201 203 206 207 206 207 208 210 213 216 219
55 123 127 269 247 311 273 261 289 287 315 17 350 325 322 309 299 301 283 235 36 20 9 0 350 343 339 338 338 333 328 327 321 318 343 349 340 335 332 325 323 324 324 327 329 329 326 323 318 312 307 300 290 267 235 212 199 192 189 188 188 189 190 192 195 196 196 197 198 200 202 204 204 203 203 203 205 206 207 206 208 211 213 215 218 221
26 40 71 30 274 303 293 273 287 292 27 11 338 320 320 311 303 301 267 238 13 5 358 353 344 338 339 340 338 337 336 332 321 320 335 336 329 327 327 325 324 323 322 324 328 326 323 319 315 308 299 289 280 264 234 211 199 191 189 190 188 188 191 195 198 198 197 198 200 203 204 205 205 206 206 206 208 208 208 209 211 213 216 218 221 225
19 11 39 11 277 294 298 282 294 13 67 5 345 333 323 312 310 324 308 325 351 349 346 345 335 332 339 339 336 337 332 322 318 320 323 322 318 320 324 324 322 321 321 322 324 322 318 315 312 304 295 286 278 261 231 208 198 193 192 190 188 192 197 199 200 199 199 201 203 205 206 207 208 210 210 210 211 211 211 211 212 214 216 219 223 227
15 357 11 335 293 312 310 294 299 159 101 8 356 346 327 313 322 28 348 323 337 338 335 333 327 327 336 334 330 328 317 312 311 308 310 313 317 322 324 323 320 318 319 319 320 320 318 314 309 302 294 286 277 256 227 207 198 197 195 190 192 200 203 201 200 199 200 203 205 207 209 211 212 213 214 215 215 214 213 214 215 216 217 221 224 227
4 338 359 0 339 338 333 315 305 269 50 11 356 346 340 338 9 16 321 317 332 330 323 320 320 324 328 324 321 318 312 312 311 307 309 317 321 321 320 320 319 319 318 318 317 318 317 313 309 303 294 285 271 248 224 207 199 199 195 194 201 205 203 201 200 201 203 206 208 210 212 214 215 216 217 217 215 214 214 215 217 219 220 223 225 227
351 325 4 4 347 343 338 332 327 319 9 6 355 348 360 15 6 322 316 323 329 323 315 313 314 317 318 316 317 315 313 314 315 314 314 317 317 315 314 316 318 317 316 317 317 319 318 312 307 303 296 284 264 241 221 206 202 201 198 201 207 204 200 202 202 202 205 207 210 213 214 215 217 217 217 217 216 215 216 216 218 220 222 224 225 227
28 19 350 344 23 18 328 323 339 317 334 2 358 335 322 324 331 338 333 327 324 321 317 315 314 315 315 314 313 312 314 317 317 316 317 316 313 311 313 316 316 314 313 315 318 320 318 311 306 304 297 280 254 235 220 208 206 205 202 206 208 201 200 203 202 203 206 208 210 213 214 216 217 217 217 217 216 217 218 218 219 221 223 225 226 227
61 46 300 280 15 340 273 256 281 294 319 356 343 312 304 321 347 346 333 321 319 322 323 321 319 318 316 312 309 310 315 318 317 317 319 316 311 313 317 316 315 316 318 320 320 320 317 312 309 304 293 273 249 233 221 213 210 209 207 207 206 202 202 201 200 202 204 206 209 211 212 213 215 216 218 219 218 219 219 219 220 221 222 224 225 228
64 37 295 271 313 303 268 253 282 297 325 336 319 305 323 350 347 335 326 323 326 328 327 323 318 315 313 310 311 315 319 319 318 318 316 313 310 314 316 316 318 322 324 322 322 322 320 318 313 303 288 269 248 231 222 219 217 215 213 210 206 204 203 199 199 201 203 206 209 209 210 211 212 215 219 221 222 223 224 222 222 222 223 225 226 229
4 24 323 304 321 318 307 311 315 318 324 319 309 313 346 348 337 328 326 331 331 327 322 317 314 313 312 312 316 318 319 321 319 314 314 315 314 315 318 321 323 324 324 323 324 325 323 320 316 308 294 275 251 234 227 224 222 222 221 214 208 205 203 201 201 202 204 206 208 209 210 211 212 214 217 220 222 224 226 227 227 227 227 227 227 229
305 339 330 323 324 308 292 298 311 314 307 300 303 331 347 340 331 326 331 338 330 321 316 316 318 317 314 315 318 316 316 317 312 309 313 315 311 313 321 323 321 322 323 324 324 325 325 323 322 318 307 290 265 245 235 229 227 229 226 218 212 208 205 204 206 207 208 209 210 211 212 213 215 216 218 221 223 225 227 228 228 229 232 234 233 231
292 317 316 308 306 294 289 309 323 319 303 293 318 339 342 338 330 326 330 335 327 320 318 319 322 322 318 316 315 310 309 310 307 311 316 312 307 314 320 319 320 322 322 322 324 327 328 328 329 328 322 309 286 259 245 238 235 234 232 224 219 213 209 210 212 212 213 213 213 215 216 216 219 221 222 224 227 230 233 235 235 236 241 245 244 242
310 329 314 307 313 316 318 325 328 318 303 306 324 335 340 337 327 321 326 329 326 324 324 322 322 322 320 315 311 309 313 313 312 316 315 307 306 316 317 318 321 321 320 322 326 329 331 334 336 335 330 320 303 277 256 248 244 240 237 231 225 221 219 218 215 213 214 216 217 218 218 218 221 224 225 227 230 233 239 243 244 245 249 254 256 256
324 326 326 327 319 310 312 316 313 301 293 303 319 332 335 328 317 313 318 320 319 319 321 320 319 320 319 314 311 311 312 312 313 315 310 303 306 311 314 318 321 318 317 322 326 327 332 336 336 335 331 322 308 289 270 260 255 248 243 240 237 234 230 225 218 214 216 219 220 220 220 221 224 226 227 230 232 234 239 245 248 248 248 252 260 264